JAF919P LFQQ-EBBR

Flight info

Callsign JAF919P
Flight time 0h 20m
Altitude 12000
Route CMB Z373 ARVOL
Aircraft B738/M-SDE2E3FGHIRWXY/LB1

Departure

Time 2026-04-14 10:11
Airport Lille Airport (LFQQ)

Arrival

Time 2026-04-14 10:31
Airport Brussels Airport (EBBR)
Time Latitude Longitude Altitude Speed Heading
2026-04-14 09:59 50.57105 3.10610 157 ft 0 kts 347°
2026-04-14 10:04 50.57103 3.10611 157 ft 0 kts 347°
2026-04-14 10:04 50.57092 3.10614 157 ft 2 kts 350°
2026-04-14 10:05 50.57075 3.10618 157 ft 2 kts 354°
2026-04-14 10:05 50.57059 3.10620 157 ft 2 kts
2026-04-14 10:05 50.57043 3.10617 157 ft 2 kts 15°
2026-04-14 10:05 50.57028 3.10606 157 ft 2 kts 53°
2026-04-14 10:06 50.57023 3.10588 157 ft 1 kts 79°
2026-04-14 10:06 50.57022 3.10586 157 ft 0 kts 79°
2026-04-14 10:08 50.57017 3.10661 165 ft 12 kts 117°
2026-04-14 10:08 50.56937 3.10716 157 ft 13 kts 165°
2026-04-14 10:08 50.56854 3.10828 160 ft 19 kts 91°
2026-04-14 10:09 50.56880 3.11027 159 ft 18 kts 78°
2026-04-14 10:09 50.56905 3.11219 162 ft 18 kts 79°
2026-04-14 10:09 50.56930 3.11404 163 ft 17 kts 78°
2026-04-14 10:09 50.56917 3.11573 164 ft 16 kts 139°
2026-04-14 10:10 50.56811 3.11624 170 ft 16 kts 168°
2026-04-14 10:10 50.56771 3.11613 171 ft 4 kts 219°
2026-04-14 10:10 50.56757 3.11577 172 ft 6 kts 247°
2026-04-14 10:10 50.56679 3.11050 165 ft 97 kts 257°
2026-04-14 10:11 50.56468 3.09575 173 ft 176 kts 257°
2026-04-14 10:11 50.56183 3.07500 790 ft 207 kts 254°
2026-04-14 10:11 50.55479 3.05601 1999 ft 194 kts 212°
2026-04-14 10:11 50.54187 3.05085 2996 ft 205 kts 174°
2026-04-14 10:12 50.52769 3.05955 3247 ft 232 kts 148°
2026-04-14 10:12 50.51576 3.07702 3777 ft 241 kts 121°
2026-04-14 10:12 50.51193 3.10284 4202 ft 260 kts 84°
2026-04-14 10:12 50.51812 3.12994 4837 ft 268 kts 61°
2026-04-14 10:13 50.52770 3.15533 5584 ft 273 kts 58°
2026-04-14 10:13 50.53448 3.17214 6072 ft 276 kts 57°
2026-04-14 10:13 50.54493 3.19780 6833 ft 280 kts 57°
2026-04-14 10:13 50.55539 3.22367 7596 ft 281 kts 57°
2026-04-14 10:14 50.56589 3.24991 8340 ft 284 kts 57°
2026-04-14 10:14 50.57638 3.27638 9149 ft 285 kts 57°
2026-04-14 10:14 50.58698 3.30333 9648 ft 299 kts 57°
2026-04-14 10:14 50.59836 3.33237 9828 ft 322 kts 57°
2026-04-14 10:15 50.61045 3.36336 10056 ft 342 kts 57°
2026-04-14 10:15 50.62304 3.39579 10525 ft 351 kts 57°
2026-04-14 10:15 50.63582 3.42880 11135 ft 355 kts 57°
2026-04-14 10:15 50.64870 3.46216 11796 ft 357 kts 57°
2026-04-14 10:16 50.66157 3.49535 12159 ft 361 kts 57°
2026-04-14 10:16 50.67464 3.52899 12171 ft 360 kts 57°
2026-04-14 10:16 50.68793 3.56335 12213 ft 375 kts 57°
2026-04-14 10:16 50.70169 3.59914 12206 ft 384 kts 57°
2026-04-14 10:17 50.71552 3.63529 12189 ft 385 kts 57°
2026-04-14 10:17 50.72935 3.67155 12182 ft 384 kts 58°
2026-04-14 10:17 50.74329 3.70747 12190 ft 383 kts 54°
2026-04-14 10:17 50.76182 3.73710 12189 ft 379 kts 33°
2026-04-14 10:18 50.80560 3.78359 12204 ft 379 kts 33°
2026-04-14 10:18 50.82625 3.80856 12190 ft 381 kts 43°
2026-04-14 10:18 50.84213 3.84205 12193 ft 381 kts 58°
2026-04-14 10:19 50.85480 3.87822 12098 ft 370 kts 60°
2026-04-14 10:19 50.86651 3.91371 12008 ft 357 kts 61°
2026-04-14 10:19 50.87768 3.94811 11926 ft 344 kts 62°
2026-04-14 10:19 50.88838 3.98127 11844 ft 332 kts 62°
2026-04-14 10:20 50.89870 4.01342 11760 ft 320 kts 62°
2026-04-14 10:20 50.90862 4.04443 11684 ft 310 kts 62°
2026-04-14 10:20 50.91807 4.07401 11585 ft 301 kts 62°
2026-04-14 10:20 50.92747 4.10346 11346 ft 298 kts 62°
2026-04-14 10:21 50.93683 4.13275 11040 ft 297 kts 62°
2026-04-14 10:21 50.94619 4.16197 10750 ft 296 kts 62°
2026-04-14 10:21 50.95554 4.19103 10474 ft 294 kts 62°
2026-04-14 10:21 50.96484 4.21988 10198 ft 293 kts 62°
2026-04-14 10:22 50.97413 4.24859 9902 ft 292 kts 62°
2026-04-14 10:22 50.98182 4.27813 9588 ft 291 kts 70°
2026-04-14 10:22 50.98820 4.30853 9282 ft 290 kts 71°
2026-04-14 10:22 50.99442 4.33892 8978 ft 289 kts 72°
2026-04-14 10:23 51.00059 4.36920 8682 ft 287 kts 72°
2026-04-14 10:23 51.00673 4.39923 8389 ft 286 kts 72°
2026-04-14 10:23 51.01294 4.42948 8087 ft 285 kts 72°
2026-04-14 10:23 51.01904 4.45901 7809 ft 284 kts 72°
2026-04-14 10:24 51.02523 4.48873 7528 ft 283 kts 72°
2026-04-14 10:24 51.03144 4.51832 7252 ft 281 kts 71°
2026-04-14 10:24 51.03769 4.54779 6970 ft 280 kts 71°
2026-04-14 10:24 51.04392 4.57710 6687 ft 279 kts 71°
2026-04-14 10:25 51.05014 4.60625 6412 ft 278 kts 71°
2026-04-14 10:25 51.05634 4.63527 6137 ft 277 kts 71°
2026-04-14 10:25 51.06246 4.66415 5853 ft 275 kts 73°
2026-04-14 10:25 51.06470 4.69370 5524 ft 273 kts 99°
2026-04-14 10:26 51.05809 4.72136 5330 ft 265 kts 128°
2026-04-14 10:26 51.04449 4.73993 5166 ft 257 kts 155°
2026-04-14 10:26 51.02801 4.75066 4902 ft 254 kts 161°
2026-04-14 10:26 51.01145 4.75997 4590 ft 249 kts 162°
2026-04-14 10:27 50.99497 4.76399 4466 ft 234 kts 188°
2026-04-14 10:27 50.98040 4.75497 4263 ft 222 kts 216°
2026-04-14 10:27 50.96880 4.73943 3932 ft 215 kts 224°
2026-04-14 10:27 50.95801 4.72341 3510 ft 210 kts 223°
2026-04-14 10:28 50.94758 4.70772 3076 ft 201 kts 230°
2026-04-14 10:28 50.94094 4.68877 2553 ft 197 kts 245°
2026-04-14 10:28 50.93518 4.66936 2050 ft 193 kts 243°
2026-04-14 10:28 50.92930 4.65043 1587 ft 187 kts 243°
2026-04-14 10:29 50.92444 4.63241 1422 ft 169 kts 248°
2026-04-14 10:29 50.92029 4.61565 1240 ft 150 kts 247°
2026-04-14 10:29 50.91668 4.60050 1149 ft 149 kts 248°
2026-04-14 10:29 50.91320 4.58531 964 ft 144 kts 249°
2026-04-14 10:30 50.90981 4.57057 693 ft 143 kts 248°
2026-04-14 10:30 50.90632 4.55569 589 ft 144 kts 250°
2026-04-14 10:30 50.90296 4.54084 428 ft 142 kts 248°
2026-04-14 10:30 50.89966 4.52643 245 ft 137 kts 248°
2026-04-14 10:31 50.89637 4.51278 172 ft 106 kts 250°
2026-04-14 10:31 50.89454 4.50417 175 ft 75 kts 249°
2026-04-14 10:31 50.89337 4.49901 176 ft 28 kts 255°
2026-04-14 10:31 50.89356 4.49704 174 ft 13 kts 301°
2026-04-14 10:32 50.89419 4.49570 167 ft 17 kts 307°
2026-04-14 10:32 50.89489 4.49422 163 ft 17 kts 306°
2026-04-14 10:32 50.89555 4.49281 158 ft 17 kts 306°
2026-04-14 10:32 50.89624 4.49151 153 ft 11 kts 333°
2026-04-14 10:33 50.89710 4.49171 147 ft 15 kts 14°
2026-04-14 10:33 50.89816 4.49215 141 ft 17 kts 15°
2026-04-14 10:33 50.89940 4.49265 134 ft 20 kts 14°
2026-04-14 10:33 50.90080 4.49321 130 ft 21 kts 14°
2026-04-14 10:34 50.90322 4.49389 120 ft 11 kts 322°
2026-04-14 10:34 50.90382 4.49325 123 ft 11 kts 335°
2026-04-14 10:34 50.90475 4.49259 120 ft 16 kts 335°
2026-04-14 10:35 50.90576 4.49185 122 ft 16 kts 335°
2026-04-14 10:35 50.90644 4.49116 120 ft 10 kts 296°
2026-04-14 10:35 50.90628 4.49015 119 ft 10 kts 246°
2026-04-14 10:35 50.90600 4.48919 118 ft 9 kts 245°
2026-04-14 10:36 50.90573 4.48825 116 ft 9 kts 245°
2026-04-14 10:36 50.90546 4.48733 118 ft 10 kts 247°
2026-04-14 10:36 50.90494 4.48548 116 ft 23 kts 245°
2026-04-14 10:36 50.90438 4.48386 119 ft 10 kts 210°
2026-04-14 10:37 50.90373 4.48417 118 ft 8 kts 155°
2026-04-14 10:37 50.90367 4.48421 119 ft 0 kts 155°